Terminal Aerodrome Forecast
Issued by NWS

Home | Current Version | Previous Version | Text Only | Print | Product List | Glossary On
Versions: 1 2 3 4 5 6 7 8 9 10 11 12 13 14 15 16 17 18 19
000
FTPA31 PHFO 272325
TAFMDY
TAF
PMDY 272325Z 2800/2824 07013KT P6SM SCT020 BKN035
     FM281200 13005KT P6SM FEW020 SCT035
     FM281800 VRB04KT P6SM FEW020 SCT035=

USA.gov is the U.S. government's official web portal to all federal, state and local government web resources and services.